This is the latest recevied weather packets stored in our database for station/object DG9BJA-13. If no packets are shown the sender has not sent any weather packets the latest 10 day(s).
| Time | Temp. | Humidity | Pressure | Rain* | Wind** | Luminosity | Snow |
|---|---|---|---|---|---|---|---|
| 1777725377 | 25.56° C | 39% | 1016.7 hPa | 0 mm | - | 599 W/m² | - |
| 1777724777 | 25.56° C | 40% | 1016.8 hPa | 0 mm | - | 810 W/m² | - |
| 1777724177 | 25.56° C | 38% | 1016.8 hPa | 0 mm | - | 740 W/m² | - |
| 1777723577 | 25.56° C | 38% | 1016.9 hPa | 0 mm | - | 777 W/m² | - |
| 1777722977 | 25.56° C | 37% | 1017.1 hPa | 0 mm | - | 788 W/m² | - |
| 1777722377 | 25.56° C | 37% | 1017.1 hPa | 0 mm | - | 851 W/m² | - |
| 1777721777 | 25.56° C | 35% | 1017.3 hPa | 0 mm | - | 759 W/m² | - |
| 1777721177 | 25.56° C | 37% | 1017.3 hPa | 0 mm | - | 854 W/m² | - |
| 1777720577 | 25° C | 37% | 1017.3 hPa | 0 mm | - | 487 W/m² | - |
| 1777719977 | 25° C | 36% | 1017.5 hPa | 0 mm | - | 775 W/m² | - |
| 1777719376 | 25° C | 35% | 1017.6 hPa | 0 mm | - | 684 W/m² | - |
| 1777718777 | 25° C | 34% | 1017.6 hPa | 0 mm | - | 504 W/m² | - |
| 1777718177 | 24.44° C | 34% | 1017.7 hPa | 0 mm | - | 793 W/m² | - |
| 1777717577 | 24.44° C | 33% | 1017.8 hPa | 0 mm | - | 601 W/m² | - |
| 1777716977 | 24.44° C | 30% | 1017.8 hPa | 0 mm | - | 635 W/m² | - |
| 1777716376 | 23.89° C | 32% | 1017.9 hPa | 0 mm | - | 624 W/m² | - |
| 1777715776 | 23.89° C | 33% | 1018.2 hPa | 0 mm | - | 729 W/m² | - |
| 1777715176 | 23.89° C | 33% | 1018.2 hPa | 0 mm | - | 717 W/m² | - |
| 1777714577 | 23.33° C | 35% | 1018.3 hPa | 0 mm | - | 708 W/m² | - |
| 1777713977 | 23.33° C | 36% | 1018.4 hPa | 0 mm | - | 696 W/m² | - |
| 1777713377 | 22.78° C | 37% | 1018.4 hPa | 0 mm | - | 682 W/m² | - |
| 1777712777 | 22.22° C | 39% | 1018.5 hPa | 0 mm | - | 668 W/m² | - |
| 1777712177 | 22.22° C | 40% | 1018.6 hPa | 0 mm | - | 643 W/m² | - |
| 1777711577 | 21.67° C | 42% | 1018.6 hPa | 0 mm | - | 626 W/m² | - |
| 1777710976 | 21.11° C | 42% | 1018.8 hPa | 0 mm | - | 610 W/m² | - |
* Rain latest hour (hover to see other rain measurements)
** Current wind speed in m/s (hover to see current wind gust speed)